GW0701 Weather Reports


Display with metric or nautical units.
time (UTC)temp
F
wind
direction
speed
MPH
gust
MPH
rain 1hr
in
rain 24hr
in
rain mn
in
humidity
%
barometer
mb
20260508160432 54 265 0.0 0.0 0.00 0.04 0.04 95 1010.1
20260508155927 54 45 2.0 2.0 0.12 0.04 0.04 95 1010.2
20260508155424 54 184 2.0 2.0 0.12 0.04 0.04 95 1010.4
20260508154921 54 197 2.0 2.0 0.00 0.02 0.02 95 1010.4
20260508154419 53 225 0.0 0.0 0.00 0.02 0.02 95 1010.9
20260508153915 54 233 0.0 1.0 0.00 0.02 0.02 95 1011.0
20260508153412 54 290 1.0 1.0 0.00 0.02 0.02 95 1011.0
20260508152908 54 314 1.0 1.0 0.00 0.02 0.02 94 1011.0
20260508152405 54 249 1.0 1.0 0.00 0.02 0.02 93 1010.6
20260508151902 54 252 0.0 0.0 0.05 0.02 0.02 93 1010.7
20260508151358 54 257 1.0 1.0 0.05 0.02 0.02 92 1010.8
20260508150855 54 221 0.0 0.0 0.00 0.01 0.01 91 1010.5
20260508150352 54 204 1.0 1.0 0.00 0.01 0.01 91 1010.1
20260508145847 54 203 1.0 1.0 0.00 0.01 0.01 91 1009.9
20260508145344 54 209 0.0 1.0 0.07 0.01 0.01 89 1010.0
20260508144841 55 199 2.0 2.0 0.07 0.01 0.01 87 1010.1
20260508144339 55 226 1.0 1.0 0.00 0.00 0.00 85 1010.5
20260508143836 56 232 1.0 1.0 0.00 0.00 0.00 82 1010.3
20260508143333 56 239 0.0 1.0 0.00 0.00 0.00 80 1010.4
20260508142830 56 236 0.0 0.0 0.00 0.00 0.00 79 1010.4
20260508142326 56 226 1.0 2.0 0.00 0.00 0.00 79 1010.3
20260508141823 56 218 2.0 2.0 0.00 0.00 0.00 79 1010.3
20260508141320 56 228 2.0 3.0 0.00 0.00 0.00 78 1010.4
20260508140818 56 220 2.0 2.0 0.00 0.00 0.00 78 1010.2
20260508140314 56 203 2.0 2.0 0.00 0.00 0.00 78 1010.1
20260508135810 56 217 1.0 2.0 0.00 0.00 0.00 79 1010.4
20260508135307 55 247 2.0 2.0 0.00 0.00 0.00 80 1010.6
20260508134802 55 258 2.0 2.0 0.00 0.00 0.00 81 1010.9
20260508134300 55 236 1.0 1.0 0.00 0.00 0.00 82 1010.8
20260508133756 54 233 0.0 1.0 0.00 0.00 0.00 83 1010.8
20260508133254 54 238 1.0 1.0 0.00 0.00 0.00 83 1010.6
20260508132751 54 216 0.0 1.0 0.00 0.00 0.00 83 1010.6
20260508132248 54 213 1.0 2.0 0.00 0.00 0.00 83 1010.6
20260508131744 53 201 1.0 1.0 0.00 0.00 0.00 84 1010.5
20260508131241 53 186 1.0 1.0 0.00 0.00 0.00 83 1010.2
20260508130737 53 168 0.0 1.0 0.00 0.00 0.00 83 1010.2
20260508130235 53 148 1.0 1.0 0.00 0.00 0.00 84 1010.0
20260508125730 53 95 1.0 1.0 0.00 0.00 0.00 85 1009.9
20260508125227 53 138 1.0 1.0 0.00 0.00 0.00 86 1009.9
20260508124725 52 179 1.0 1.0 0.00 0.00 0.00 87 1009.8
20260508124222 52 190 0.0 0.0 0.00 0.00 0.00 88 1009.9
20260508123720 51 193 1.0 1.0 0.00 0.00 0.00 89 1009.8
20260508123218 51 211 0.0 0.0 0.00 0.00 0.00 89 1009.9
20260508122713 51 204 1.0 1.0 0.00 0.00 0.00 89 1009.7
20260508122211 51 248 0.0 0.0 0.00 0.00 0.00 89 1009.6
20260508121708 50 242 0.0 0.0 0.00 0.00 0.00 89 1009.7
20260508121207 50 231 0.0 0.0 0.00 0.00 0.00 89 1009.8
20260508120704 50 216 0.0 0.0 0.00 0.00 0.00 89 1009.8
20260508120202 50 216 0.0 0.0 0.00 0.00 0.00 90 1009.8
20260508115659 50 211 0.0 0.0 0.00 0.00 0.00 90 1009.7
20260508115156 50 200 1.0 2.0 0.00 0.00 0.00 90 1009.9
20260508114653 49 216 0.0 0.0 0.00 0.00 0.00 90 1009.7
20260508114149 49 216 0.0 0.0 0.00 0.00 0.00 90 1009.6
20260508113646 49 216 0.0 0.0 0.00 0.00 0.00 89 1009.5
20260508113145 49 230 0.0 0.0 0.00 0.00 0.00 88 1009.7
20260508112640 49 230 0.0 0.0 0.00 0.00 0.00 87 1009.4
20260508112137 50 230 0.0 0.0 0.00 0.00 0.00 87 1009.3
20260508111634 50 236 0.0 0.0 0.00 0.00 0.00 87 1009.4
20260508111131 50 241 1.0 1.0 0.00 0.00 0.00 87 1009.2
20260508110629 50 250 0.0 0.0 0.00 0.00 0.00 87 1009.2
20260508110125 50 255 1.0 1.0 0.00 0.00 0.00 86 1009.2
20260508105620 50 247 0.0 1.0 0.00 0.00 0.00 86 1009.4
20260508105117 50 257 0.0 0.0 0.00 0.00 0.00 85 1009.3
20260508104615 50 255 1.0 1.0 0.00 0.00 0.00 85 1009.5
20260508104111 51 263 0.0 0.0 0.00 0.00 0.00 84 1009.4
20260508103608 51 263 1.0 1.0 0.00 0.00 0.00 83 1009.3
20260508103106 51 255 2.0 2.0 0.00 0.00 0.00 82 1009.3
20260508102603 52 259 1.0 2.0 0.00 0.00 0.00 81 1009.4
20260508102101 52 268 4.0 6.0 0.00 0.00 0.00 80 1009.2
20260508101558 52 257 4.0 6.0 0.00 0.00 0.00 79 1009.2
20260508101055 53 258 2.0 2.0 0.00 0.00 0.00 79 1009.2
20260508100553 53 247 4.0 5.0 0.00 0.00 0.00 78 1009.4
20260508100049 53 247 3.0 3.0 0.00 0.00 0.00 78 1009.1
20260508095547 53 250 2.0 2.0 0.00 0.00 0.00 77 1009.1
20260508095043 53 235 3.0 3.0 0.00 0.00 0.00 77 1008.9
20260508094541 53 241 2.0 2.0 0.00 0.00 0.00 77 1008.9
20260508094037 53 244 3.0 5.0 0.00 0.00 0.00 77 1008.8
20260508093534 53 235 2.0 2.0 0.00 0.00 0.00 77 1008.9
20260508093032 53 238 2.0 2.0 0.00 0.00 0.00 77 1009.0
20260508092529 53 192 4.0 5.0 0.00 0.00 0.00 77 1008.8
20260508092028 53 249 3.0 5.0 0.00 0.00 0.00 76 1008.8
20260508091525 54 222 3.0 5.0 0.00 0.00 0.00 76 1008.8
20260508091022 54 234 3.0 3.0 0.00 0.00 0.00 76 1008.9
20260508090520 54 238 3.0 3.0 0.00 0.00 0.00 75 1008.6
20260508090016 54 230 2.0 2.0 0.00 0.00 0.00 75 1008.6
20260508085513 54 219 3.0 3.0 0.00 0.00 0.00 74 1008.7
20260508085010 55 243 2.0 2.0 0.00 0.00 0.00 74 1008.8
20260508084507 55 245 3.0 3.0 0.00 0.00 0.00 74 1008.8
20260508084004 55 233 3.0 3.0 0.00 0.00 0.00 73 1008.7
20260508083501 55 251 2.0 3.0 0.00 0.00 0.00 73 1008.7
20260508082956 55 225 4.0 5.0 0.00 0.00 0.00 73 1008.9
20260508082453 55 237 3.0 3.0 0.00 0.00 0.00 73 1008.9
20260508081951 55 254 3.0 5.0 0.00 0.00 0.00 73 1009.1
20260508081448 55 222 4.0 5.0 0.00 0.00 0.00 72 1008.9
20260508080944 55 225 2.0 2.0 0.00 0.00 0.00 72 1008.8
20260508080442 55 254 3.0 3.0 0.00 0.00 0.00 72 1009.1
20260508075939 55 243 5.0 6.0 0.00 0.00 0.00 72 1009.1
20260508075436 56 227 4.0 6.0 0.00 0.00 0.00 71 1009.0
20260508074933 56 210 4.0 5.0 0.00 0.00 0.00 71 1009.0
20260508074431 56 194 3.0 5.0 0.00 0.00 0.00 71 1009.3
20260508073927 56 202 4.0 5.0 0.00 0.00 0.00 70 1009.2
20260508073425 56 222 4.0 5.0 0.00 0.00 0.00 70 1009.4
20260508072922 56 214 5.0 6.0 0.00 0.00 0.00 70 1009.3
20260508072418 56 228 4.0 6.0 0.00 0.00 0.00 70 1009.5
20260508071916 56 238 5.0 7.0 0.00 0.00 0.00 70 1009.6
20260508071413 56 227 3.0 3.0 0.00 0.00 0.00 71 1009.6
20260508070911 56 207 4.0 5.0 0.00 0.00 0.00 70 1009.6
20260508070408 56 242 4.0 5.0 0.00 0.00 0.00 70 1009.6
20260508065906 56 195 5.0 6.0 0.00 0.00 0.00 70 1009.6
20260508065404 56 219 2.0 2.0 0.00 0.00 0.00 70 1009.6
20260508064902 57 229 3.0 5.0 0.00 0.00 0.00 69 1009.9
20260508064359 56 195 3.0 3.0 0.00 0.00 0.00 70 1009.7
20260508063857 56 224 5.0 6.0 0.00 0.00 0.00 69 1009.9
20260508063354 56 235 4.0 6.0 0.00 0.00 0.00 70 1010.0
20260508062851 56 217 3.0 5.0 0.00 0.00 0.00 69 1009.8
20260508062349 56 199 3.0 5.0 0.00 0.00 0.00 69 1010.0
20260508061846 57 219 2.0 2.0 0.00 0.00 0.00 69 1010.0
20260508061343 57 195 4.0 5.0 0.00 0.00 0.00 68 1010.2
20260508060839 57 187 3.0 3.0 0.00 0.00 0.00 68 1010.3
20260508060337 57 234 3.0 5.0 0.00 0.00 0.00 68 1010.1
20260508055832 57 226 3.0 3.0 0.00 0.00 0.00 67 1010.2
20260508055330 57 224 4.0 5.0 0.00 0.00 0.00 68 1010.4
20260508054826 57 218 4.0 5.0 0.00 0.00 0.00 68 1010.4
20260508054324 57 220 3.0 3.0 0.00 0.00 0.00 69 1010.3
20260508053820 57 193 3.0 3.0 0.00 0.00 0.00 69 1010.5
20260508053318 57 228 3.0 3.0 0.00 0.00 0.00 69 1010.3
20260508052815 57 231 4.0 6.0 0.00 0.00 0.00 68 1010.3
20260508052312 57 204 3.0 3.0 0.00 0.00 0.00 69 1010.5
20260508051808 57 234 3.0 5.0 0.00 0.00 0.00 69 1010.5
20260508051304 57 236 2.0 3.0 0.00 0.00 0.00 68 1010.5
20260508050801 57 228 3.0 5.0 0.00 0.00 0.00 68 1010.4
20260508050258 57 231 3.0 3.0 0.00 0.00 0.00 68 1010.6
20260508045753 57 233 3.0 3.0 0.00 0.00 0.00 68 1010.5
20260508045251 57 224 3.0 3.0 0.00 0.00 0.00 68 1010.8
20260508044749 57 207 2.0 3.0 0.00 0.00 0.00 68 1010.8
20260508044245 57 224 3.0 3.0 0.00 0.00 0.00 68 1010.6
20260508043741 57 223 3.0 5.0 0.00 0.00 0.00 68 1010.6
20260508043239 57 211 4.0 6.0 0.00 0.00 0.00 67 1010.6
20260508042735 57 220 3.0 5.0 0.00 0.00 0.00 68 1010.6
20260508042233 57 221 3.0 3.0 0.00 0.00 0.00 68 1010.7
20260508041729 57 223 1.0 2.0 0.00 0.00 0.00 68 1010.7
20260508041226 57 226 3.0 3.0 0.00 0.00 0.00 68 1010.7
20260508040722 57 238 2.0 2.0 0.00 0.00 0.00 68 1010.9
20260508040220 57 205 2.0 3.0 0.00 0.00 0.00 68 1010.6
20260508035717 57 216 3.0 3.0 0.00 0.00 0.00 68 1010.8
20260508035215 57 217 2.0 2.0 0.00 0.00 0.00 68 1010.5
20260508034711 57 231 2.0 3.0 0.00 0.00 0.00 67 1010.7
20260508034209 57 219 1.0 1.0 0.00 0.00 0.00 68 1010.5
20260508033705 57 215 3.0 3.0 0.00 0.00 0.00 68 1010.6
20260508033204 57 220 3.0 3.0 0.00 0.00 0.00 68 1010.7
20260508032700 57 212 2.0 2.0 0.00 0.00 0.00 68 1010.6
20260508032158 57 203 2.0 2.0 0.00 0.00 0.00 68 1010.5
20260508031654 57 206 4.0 6.0 0.00 0.00 0.00 67 1010.6
20260508031151 57 188 3.0 3.0 0.00 0.00 0.00 67 1010.6
20260508030647 57 245 4.0 7.0 0.00 0.00 0.00 67 1010.4
20260508030145 57 209 3.0 5.0 0.00 0.00 0.00 67 1010.4
20260508025641 57 198 3.0 3.0 0.00 0.00 0.00 67 1010.3
20260508025138 57 209 2.0 2.0 0.00 0.00 0.00 67 1010.4
20260508024634 57 221 2.0 2.0 0.00 0.00 0.00 67 1010.5
20260508024132 58 227 1.0 2.0 0.00 0.00 0.00 66 1010.3
20260508023627 58 215 2.0 2.0 0.00 0.00 0.00 66 1010.3
20260508023125 58 217 2.0 2.0 0.00 0.00 0.00 66 1010.4
20260508022621 58 194 2.0 3.0 0.00 0.00 0.00 65 1010.3
20260508022118 58 222 2.0 2.0 0.00 0.00 0.00 65 1010.1
20260508021614 59 215 2.0 2.0 0.00 0.00 0.00 65 1010.0
20260508021110 59 222 2.0 2.0 0.00 0.00 0.00 64 1010.1
20260508020608 59 203 3.0 3.0 0.00 0.00 0.00 64 1010.1
20260508020105 59 205 2.0 2.0 0.00 0.00 0.00 64 1010.1
20260508015603 59 210 3.0 3.0 0.00 0.00 0.00 63 1009.8
20260508015059 59 203 1.0 1.0 0.00 0.00 0.00 62 1009.7
20260508014555 59 203 2.0 2.0 0.00 0.00 0.00 62 1009.8
20260508014052 60 200 1.0 2.0 0.00 0.00 0.00 61 1009.7
20260508013548 60 221 2.0 2.0 0.00 0.00 0.00 61 1010.0
20260508013045 60 211 2.0 2.0 0.00 0.00 0.00 61 1009.9
20260508012542 60 221 1.0 1.0 0.00 0.00 0.00 61 1009.8
20260508012040 60 213 1.0 1.0 0.00 0.00 0.00 61 1009.9
20260508011538 61 223 2.0 2.0 0.00 0.00 0.00 59 1009.9
20260508011035 62 223 2.0 3.0 0.00 0.00 0.00 57 1009.6
20260508010532 62 246 1.0 2.0 0.00 0.00 0.00 56 1009.7
20260508010030 62 232 1.0 1.0 0.00 0.00 0.00 55 1009.7
20260508005526 63 229 2.0 2.0 0.00 0.00 0.00 55 1009.7
20260508005023 63 203 2.0 3.0 0.00 0.00 0.00 54 1009.6
20260508004518 63 235 3.0 3.0 0.00 0.00 0.00 51 1009.8
20260508004015 64 240 2.0 2.0 0.00 0.00 0.00 51 1009.8
20260508003512 64 241 2.0 2.0 0.00 0.00 0.00 50 1009.7
20260508003009 64 225 2.0 2.0 0.00 0.00 0.00 50 1009.6
20260508002505 65 236 4.0 5.0 0.00 0.00 0.00 49 1009.4
20260508002003 65 253 3.0 5.0 0.00 0.00 0.00 48 1009.4
20260508001458 65 233 2.0 2.0 0.00 0.00 0.00 48 1009.3
20260508000955 66 235 3.0 3.0 0.00 0.00 0.00 46 1009.6
20260508000450 66 249 5.0 6.0 0.00 0.00 0.00 47 1009.6
20260507235948 66 259 6.0 8.0 0.00 0.00 0.00 46 1009.5
20260507235445 66 237 3.0 5.0 0.00 0.00 0.00 47 1009.6
20260507234942 67 238 10.0 15.0 0.00 0.00 0.00 45 1009.5
20260507234439 67 250 6.0 7.0 0.00 0.00 0.00 46 1009.7
20260507233935 67 242 3.0 5.0 0.00 0.00 0.00 46 1009.6
20260507233432 67 236 5.0 6.0 0.00 0.00 0.00 47 1009.7
20260507232930 67 225 4.0 6.0 0.00 0.00 0.00 45 1009.6
20260507232421 66 241 4.0 5.0 0.00 0.00 0.00 46 1009.6
20260507231918 67 253 5.0 7.0 0.00 0.00 0.00 45 1009.7
20260507231414 65 250 3.0 3.0 0.00 0.00 0.00 46 1010.0
20260507230911 66 234 4.0 6.0 0.00 0.00 0.00 46 1009.9
20260507230409 66 243 5.0 6.0 0.00 0.00 0.00 46 1010.0
20260507225908 66 265 7.0 10.0 0.00 0.00 0.00 44 1009.9
20260507225405 65 256 3.0 3.0 0.00 0.00 0.00 46 1010.1
20260507224901 65 211 4.0 6.0 0.00 0.00 0.00 47 1009.9
20260507224357 65 250 3.0 3.0 0.00 0.00 0.00 48 1010.2
20260507223854 66 222 4.0 6.0 0.00 0.00 0.00 48 1010.0
20260507223350 66 254 3.0 5.0 0.00 0.00 0.00 46 1010.2
20260507222847 67 218 3.0 3.0 0.00 0.00 0.00 46 1010.1
20260507222343 67 224 4.0 6.0 0.00 0.00 0.00 44 1010.0
20260507221841 67 215 7.0 10.0 0.00 0.00 0.00 43 1010.2
20260507221337 67 285 6.0 8.0 0.00 0.00 0.00 42 1010.0
20260507220833 68 240 12.0 17.0 0.00 0.00 0.00 42 1009.9
20260507220332 66 231 5.0 8.0 0.00 0.00 0.00 42 1010.0
20260507215827 66 276 4.0 5.0 0.00 0.00 0.00 43 1010.1
20260507215325 66 206 4.0 5.0 0.00 0.00 0.00 45 1010.1
20260507214822 66 245 7.0 9.0 0.00 0.00 0.00 45 1010.1
20260507214319 66 209 4.0 5.0 0.00 0.00 0.00 45 1010.0
20260507213814 66 228 5.0 7.0 0.00 0.00 0.00 43 1010.2
20260507213312 66 220 7.0 9.0 0.00 0.00 0.00 44 1010.0
20260507212808 66 240 9.0 13.0 0.00 0.00 0.00 41 1010.2
20260507212307 66 242 3.0 3.0 0.00 0.00 0.00 43 1010.2
20260507211801 67 254 9.0 13.0 0.00 0.00 0.00 40 1010.2
20260507211257 66 266 7.0 11.0 0.00 0.00 0.00 42 1010.4
20260507210754 66 224 9.0 13.0 0.00 0.00 0.00 42 1010.4
20260507210251 66 259 7.0 9.0 0.00 0.00 0.00 42 1010.3
20260507205748 66 250 5.0 7.0 0.00 0.00 0.00 42 1010.4
20260507205245 67 219 7.0 9.0 0.00 0.00 0.00 41 1010.5
20260507204741 68 224 5.0 6.0 0.00 0.00 0.00 43 1010.2
20260507204239 65 215 4.0 5.0 0.00 0.00 0.00 44 1010.6
20260507203736 66 219 5.0 7.0 0.00 0.00 0.00 45 1010.7
20260507203233 66 225 3.0 3.0 0.00 0.00 0.00 44 1010.7
20260507202730 66 239 5.0 6.0 0.00 0.00 0.00 44 1010.7
20260507202226 67 237 7.0 9.0 0.00 0.00 0.00 42 1010.9
20260507201721 66 272 3.0 5.0 0.00 0.00 0.00 45 1010.8
20260507201218 66 273 10.0 11.0 0.00 0.00 0.00 43 1010.9
20260507200714 66 248 5.0 7.0 0.00 0.00 0.00 43 1011.0
20260507200210 66 271 7.0 9.0 0.00 0.00 0.00 43 1011.0
20260507195707 68 264 8.0 14.0 0.00 0.00 0.00 42 1011.1
20260507195204 66 214 3.0 5.0 0.00 0.00 0.00 47 1011.2
20260507194701 65 236 4.0 6.0 0.00 0.00 0.00 46 1011.6
20260507194156 66 268 7.0 11.0 0.00 0.00 0.00 45 1011.3
20260507193654 66 244 3.0 5.0 0.00 0.00 0.00 44 1011.1
20260507193151 66 226 3.0 5.0 0.00 0.00 0.00 45 1011.3
20260507192646 67 268 2.0 2.0 0.00 0.00 0.00 46 1011.2
20260507192144 67 247 8.0 14.0 0.00 0.00 0.00 43 1011.2
20260507191639 67 273 3.0 3.0 0.00 0.00 0.00 46 1011.5
20260507191136 67 257 4.0 6.0 0.00 0.00 0.00 44 1011.6
20260507190634 66 226 4.0 6.0 0.00 0.00 0.00 45 1011.5
20260507190133 66 233 6.0 10.0 0.00 0.00 0.00 44 1011.7
20260507185630 66 267 8.0 10.0 0.00 0.00 0.00 44 1011.5
20260507185126 67 256 6.0 8.0 0.00 0.00 0.00 45 1011.5
20260507184625 67 224 4.0 5.0 0.00 0.00 0.00 43 1011.7
20260507184122 66 224 6.0 7.0 0.00 0.00 0.00 45 1011.8
20260507183618 67 250 8.0 16.0 0.00 0.00 0.00 43 1012.0
20260507183115 66 259 3.0 10.0 0.00 0.00 0.00 46 1012.0
20260507182612 66 255 9.0 14.0 0.00 0.00 0.00 43 1012.0
20260507182108 66 235 3.0 5.0 0.00 0.00 0.00 47 1011.9
20260507181605 64 240 5.0 8.0 0.00 0.00 0.00 46 1012.2
20260507181101 66 237 7.0 8.0 0.00 0.00 0.00 45 1012.2
20260507180558 66 257 4.0 6.0 0.00 0.00 0.00 46 1012.0
20260507180054 65 263 2.0 3.0 0.00 0.00 0.00 48 1012.3
20260507175550 66 270 9.0 11.0 0.00 0.00 0.00 45 1012.0
20260507175048 64 265 7.0 8.0 0.00 0.00 0.00 48 1012.4
20260507174545 65 223 7.0 8.0 0.00 0.00 0.00 46 1012.4
20260507174043 65 247 6.0 10.0 0.00 0.00 0.00 48 1012.3
20260507173540 65 267 9.0 14.0 0.00 0.00 0.00 45 1012.5
20260507173037 65 247 5.0 6.0 0.00 0.00 0.00 47 1012.4
20260507172532 64 251 5.0 8.0 0.00 0.00 0.00 48 1012.7
20260507172030 64 247 6.0 7.0 0.00 0.00 0.00 48 1012.7
20260507171525 64 259 6.0 8.0 0.00 0.00 0.00 48 1012.7
20260507171023 64 238 6.0 8.0 0.00 0.00 0.00 49 1012.7
20260507170519 64 231 9.0 15.0 0.00 0.00 0.00 46 1012.9
20260507170016 64 271 12.0 15.0 0.00 0.00 0.00 47 1013.1
20260507165512 63 221 6.0 8.0 0.00 0.00 0.00 49 1013.1
20260507165009 63 252 7.0 9.0 0.00 0.00 0.00 50 1013.2
20260507164505 62 263 6.0 8.0 0.00 0.00 0.00 50 1013.1
20260507164002 62 291 6.0 8.0 0.00 0.00 0.00 51 1013.4
20260507163459 62 281 5.0 7.0 0.00 0.00 0.00 52 1013.5
20260507162956 63 268 4.0 6.0 0.00 0.00 0.00 54 1013.5
20260507162451 62 243 12.0 15.0 0.00 0.00 0.00 51 1013.6
20260507161949 63 219 7.0 8.0 0.00 0.00 0.00 51 1013.4
20260507161445 62 239 3.0 3.0 0.00 0.00 0.00 52 1013.5
20260507160942 63 260 5.0 7.0 0.00 0.00 0.00 49 1013.6